Weather History for Argentia, NL

Change the Weather History Date:

Thursday, December 6, 2012

  Actual Average Record
Temperature  
Mean Temperature 42 °F -  
Max Temperature 49 °F - - ()
Min Temperature 35 °F - - ()
Degree Days  
Heating Degree Days 23    
Moisture  
Dew Point 42 °F    
Average Humidity 94    
Maximum Humidity 98    
Minimum Humidity 87    
Precipitation  
Precipitation 0.31 in - - ()
Sea Level Pressure  
Sea Level Pressure 29.62 in    
Wind  
Wind Speed 13 mph ()    
Max Wind Speed 26 mph    
Max Gust Speed 34 mph    
T = Trace of Precipitation, MM = Missing Value Source: Averaged Metar Reports

Daily Weather History Graph

Daily Weather History Graph

Search for Another Location

Airport:

Trip Planner

Search our weather history database for the weather conditions in past years. The results will help you decide how hot, cold, wet, or windy it might be!

Date:

Astronomy

Dec. 06, 2012 Rise Set
Actual Time 7:38 AM NST 4:16 PM NST
Civil Twilight 7:02 AM NST 4:51 PM NST
Nautical Twilight 6:24 AM NST 5:29 PM NST
Astronomical Twilight 5:47 AM NST 6:07 PM NST
Moon No Moon Rise 12:04 PM NST (12/6)
Length of Visible Light 9h 48m
Length of Day
8h 37m
Waning Gibbous, 50% of the Moon is Illuminated
Dec 6
Waning Gibbous
Dec 6
Last Quarter
Dec 13
New
Dec 20
First Quarter
Dec 28
Full

Hourly Weather History & Observations

Time (NST) Temp. Windchill Dew Point Humidity Pressure Visibility Wind Dir Wind Speed Gust Speed Precip Events Conditions
12:30 AM 40.5 °F 30.9 °F 39.4 °F 96% 29.84 in - SSW 20.7 mph 26.5 mph N/A   Unknown
1:30 AM 40.5 °F 32.5 °F 39.4 °F 96% 29.81 in - SSW 15.0 mph - N/A   Unknown
2:30 AM 40 °F - 38 °F 91% 29.79 in - South 11.5 mph - -  
2:30 AM 39.7 °F 32.7 °F 38.3 °F 95% 29.79 in - South 11.5 mph - N/A   Unknown
3:30 AM 43.5 °F 36.1 °F 41.5 °F 93% 29.76 in - South 16.1 mph - N/A   Unknown
4:30 AM 44.4 °F 37.2 °F 42.4 °F 93% 29.74 in - South 16.1 mph - N/A   Unknown
5:30 AM 45 °F - 43 °F 92% 29.71 in - South 12.7 mph - -  
5:30 AM 45.3 °F 39.3 °F 43.3 °F 93% 29.71 in - South 12.7 mph 21.9 mph N/A   Unknown
6:30 AM 46.9 °F - 44.2 °F 90% 29.68 in - SSE 16.1 mph 23.0 mph N/A   Unknown
7:30 AM 45.1 °F 36.9 °F 43.0 °F 92% 29.65 in - SSE 21.9 mph 29.9 mph N/A   Unknown
8:30 AM 47 °F - 44 °F 87% 29.62 in - SSE 21.9 mph - -  
8:30 AM 46.9 °F - 44.4 °F 91% 29.62 in - SSE 21.9 mph 31.1 mph N/A   Unknown
9:30 AM 48.2 °F - 45.3 °F 90% 29.60 in - SSE 24.2 mph 34.5 mph N/A   Unknown
10:30 AM 48.9 °F - 46.2 °F 90% 29.58 in - SSE 19.6 mph 28.8 mph N/A   Unknown
11:30 AM 45 °F - 43 °F 90% 29.58 in - SSW 16.1 mph - -  
11:30 AM 44.6 °F 37.4 °F 43.0 °F 94% 29.58 in - SSW 16.1 mph - 0.07 in   Unknown
12:30 PM 44.4 °F 39.5 °F 43.2 °F 95% 29.55 in - SSW 9.2 mph - 0.12 in   Unknown
1:30 PM 46.6 °F - 45.1 °F 95% 29.51 in - SSE 5.8 mph - 0.03 in   Unknown
2:30 PM 45 °F - 43 °F 91% 29.51 in - SSW 4.6 mph - -  
2:30 PM 45.0 °F 42.6 °F 43.2 °F 93% 29.51 in - SSW 4.6 mph - 0.09 in   Unknown
3:30 PM 44.1 °F 37.7 °F 43.0 °F 96% 29.51 in - West 12.7 mph - 0.09 in   Unknown
4:30 PM 44.1 °F 40.8 °F 42.8 °F 95% 29.51 in - NW 5.8 mph - 0.11 in   Unknown
5:30 PM 43 °F - 42 °F 96% 29.50 in - South 2.3 mph - -  
5:30 PM 43.3 °F - 42.3 °F 96% 29.50 in - South 2.3 mph - 0.03 in   Unknown
6:30 PM 43.0 °F - 41.9 °F 96% 29.51 in - SSW 1.2 mph - N/A   Unknown
7:30 PM 42.8 °F 38.6 °F 41.7 °F 96% 29.51 in - West 6.9 mph - 0.03 in   Unknown
8:30 PM 38 °F - 37 °F 93%  in - North 23.0 mph - -  
9:30 PM 36.5 °F 25.7 °F 35.1 °F 95% 29.56 in - North 20.7 mph 27.6 mph N/A   Unknown
10:30 PM 35.4 °F 23.2 °F 34.9 °F 98% 29.57 in - North 25.3 mph - 0.06 in   Unknown
11:30 PM 35.8 °F 23.4 °F 35.1 °F 97% 29.58 in - North 26.5 mph 34.5 mph N/A   Unknown